| time (UTC) | temp C | wind direction | speed KPH | gust KPH | rain 1hr cm | rain 24hr cm | rain mn cm | humidity % | barometer mb |
| 20260505192633 | 31 | 240 | 11.3 | 24.1 | 0.00 | 0.00 | 0.00 | 53 | 1002.2 |
| 20260505191627 | 31 | 227 | 11.3 | 24.1 | 0.00 | 0.00 | 0.00 | 52 | 1002.3 |
| 20260505190557 | 30 | 194 | 9.7 | 22.5 | 0.00 | 0.00 | 0.00 | 53 | 1002.0 |
| 20260505185615 | 30 | 222 | 9.7 | 30.6 | 0.00 | 0.00 | 0.00 | 56 | 1002.0 |
| 20260505183428 | 29 | 213 | 12.9 | 25.7 | 0.00 | 0.00 | 0.00 | 59 | 1002.0 |
| 20260505182416 | 29 | 180 | 14.5 | 25.7 | 0.00 | 0.00 | 0.00 | 61 | 1002.2 |
| 20260505181437 | 28 | 200 | 12.9 | 24.1 | 0.00 | 0.00 | 0.00 | 61 | 1002.2 |
| 20260505180403 | 28 | 190 | 11.3 | 27.4 | 0.00 | 0.00 | 0.00 | 61 | 1002.3 |
| 20260505175332 | 28 | 195 | 12.9 | 32.2 | 0.00 | 0.00 | 0.00 | 61 | 1002.2 |
| 20260505174323 | 28 | 192 | 14.5 | 32.2 | 0.00 | 0.00 | 0.00 | 66 | 1002.3 |
| 20260505173334 | 28 | 209 | 14.5 | 27.4 | 0.00 | 0.00 | 0.00 | 65 | 1002.2 |
| 20260505171209 | 28 | 195 | 12.9 | 25.7 | 0.00 | 0.00 | 0.00 | 64 | 1002.5 |
| 20260505170140 | 28 | 194 | 12.9 | 24.1 | 0.00 | 0.00 | 0.00 | 65 | 1002.3 |
| 20260505165123 | 27 | 184 | 14.5 | 25.7 | 0.00 | 0.00 | 0.00 | 65 | 1002.5 |
| 20260505164126 | 27 | 207 | 14.5 | 29.0 | 0.00 | 0.00 | 0.00 | 65 | 1002.4 |
| 20260505163108 | 27 | 218 | 12.9 | 29.0 | 0.00 | 0.00 | 0.00 | 68 | 1002.3 |
| 20260505162109 | 26 | 183 | 12.9 | 24.1 | 0.00 | 0.00 | 0.00 | 71 | 1002.2 |
| 20260505161126 | 26 | 210 | 14.5 | 24.1 | 0.00 | 0.00 | 0.00 | 72 | 1002.2 |
| 20260505160151 | 25 | 202 | 14.5 | 33.8 | 0.00 | 0.00 | 0.00 | 73 | 1002.0 |
| 20260505153054 | 24 | 226 | 14.5 | 27.4 | 0.00 | 0.00 | 0.00 | 77 | 1001.7 |
| 20260505152119 | 23 | 214 | 17.7 | 30.6 | 0.00 | 0.00 | 0.00 | 78 | 1001.9 |
| 20260505151044 | 23 | 213 | 16.1 | 33.8 | 0.00 | 0.00 | 0.00 | 78 | 1001.9 |
| 20260505125002 | 21 | 173 | 14.5 | 30.6 | 0.00 | 0.00 | 0.00 | 83 | 1001.7 |
| 20260505123934 | 21 | 197 | 16.1 | 30.6 | 0.00 | 0.00 | 0.00 | 84 | 1001.6 |
| 20260505122945 | 21 | 178 | 16.1 | 30.6 | 0.00 | 0.00 | 0.00 | 84 | 1001.3 |
| 20260505115606 | 20 | 202 | 16.1 | 27.4 | 0.00 | 0.00 | 0.00 | 83 | 1001.1 |
| 20260505114623 | 21 | 157 | 16.1 | 32.2 | 0.00 | 0.00 | 0.00 | 83 | 1000.9 |
| 20260505112422 | 21 | 225 | 17.7 | 33.8 | 0.00 | 0.00 | 0.00 | 83 | 1000.8 |
| 20260505111441 | 21 | 187 | 16.1 | 32.2 | 0.00 | 0.00 | 0.00 | 83 | 1000.7 |
| 20260505110437 | 21 | 208 | 16.1 | 35.4 | 0.00 | 0.00 | 0.00 | 83 | 1000.8 |
| 20260505101350 | 21 | 187 | 17.7 | 33.8 | 0.00 | 0.00 | 0.00 | 81 | 1000.7 |
| 20260505100330 | 21 | 161 | 16.1 | 27.4 | 0.00 | 0.00 | 0.00 | 81 | 1000.7 |
| 20260505095347 | 21 | 180 | 16.1 | 25.7 | 0.00 | 0.00 | 0.00 | 81 | 1000.7 |
| 20260505094400 | 21 | 173 | 17.7 | 37.0 | 0.00 | 0.00 | 0.00 | 81 | 1000.8 |
| 20260505093414 | 21 | 219 | 19.3 | 38.6 | 0.00 | 0.00 | 0.00 | 81 | 1000.9 |
| 20260505092356 | 21 | 169 | 16.1 | 38.6 | 0.00 | 0.00 | 0.00 | 80 | 1000.9 |
| 20260505091357 | 21 | 174 | 16.1 | 37.0 | 0.00 | 0.00 | 0.00 | 79 | 1001.1 |
| 20260505090330 | 21 | 199 | 16.1 | 37.0 | 0.00 | 0.00 | 0.00 | 79 | 1001.1 |
| 20260505085315 | 21 | 177 | 17.7 | 32.2 | 0.00 | 0.00 | 0.00 | 78 | 1001.3 |
| 20260505082032 | 22 | 197 | 14.5 | 33.8 | 0.00 | 0.00 | 0.00 | 77 | 1001.4 |
| 20260505081016 | 22 | 180 | 16.1 | 33.8 | 0.00 | 0.00 | 0.00 | 77 | 1001.4 |
| 20260505075950 | 22 | 161 | 16.1 | 27.4 | 0.00 | 0.00 | 0.00 | 77 | 1001.4 |
| 20260505075013 | 22 | 180 | 12.9 | 27.4 | 0.00 | 0.00 | 0.00 | 76 | 1001.5 |
| 20260505074012 | 22 | 178 | 12.9 | 24.1 | 0.00 | 0.00 | 0.00 | 76 | 1001.6 |
| 20260505072943 | 22 | 152 | 9.7 | 22.5 | 0.00 | 0.00 | 0.00 | 75 | 1001.8 |
| 20260505071924 | 22 | 167 | 12.9 | 32.2 | 0.00 | 0.00 | 0.00 | 74 | 1002.0 |
| 20260505070912 | 22 | 169 | 16.1 | 32.2 | 0.00 | 0.00 | 0.00 | 74 | 1002.2 |
| 20260505065907 | 22 | 167 | 14.5 | 30.6 | 0.00 | 0.00 | 0.00 | 73 | 1002.4 |
| 20260505064925 | 22 | 173 | 17.7 | 29.0 | 0.00 | 0.00 | 0.00 | 73 | 1002.6 |
| 20260505063948 | 22 | 170 | 14.5 | 29.0 | 0.00 | 0.00 | 0.00 | 73 | 1002.8 |
| 20260505062915 | 22 | 177 | 14.5 | 25.7 | 0.00 | 0.00 | 0.00 | 73 | 1002.8 |
| 20260505061841 | 22 | 171 | 14.5 | 25.7 | 0.00 | 0.00 | 0.00 | 74 | 1002.9 |
| 20260505060812 | 22 | 167 | 14.5 | 29.0 | 0.00 | 0.00 | 0.00 | 74 | 1002.8 |
| 20260505055820 | 22 | 167 | 12.9 | 29.0 | 0.00 | 0.00 | 0.00 | 74 | 1003.0 |
| 20260505054800 | 22 | 192 | 12.9 | 27.4 | 0.00 | 0.00 | 0.00 | 74 | 1002.9 |
| 20260505053813 | 22 | 170 | 14.5 | 27.4 | 0.00 | 0.00 | 0.00 | 74 | 1002.9 |
| 20260505052746 | 23 | 164 | 16.1 | 33.8 | 0.00 | 0.00 | 0.00 | 73 | 1002.9 |
| 20260505051733 | 23 | 152 | 17.7 | 33.8 | 0.00 | 0.00 | 0.00 | 73 | 1002.8 |
| 20260505050748 | 23 | 153 | 16.1 | 29.0 | 0.00 | 0.00 | 0.00 | 72 | 1002.8 |
| 20260505034418 | 22 | 171 | 12.9 | 20.9 | 0.00 | 0.00 | 0.00 | 74 | 1003.3 |
| 20260505033347 | 22 | 163 | 12.9 | 24.1 | 0.00 | 0.00 | 0.00 | 74 | 1003.2 |
| 20260505032335 | 22 | 140 | 12.9 | 24.1 | 0.00 | 0.00 | 0.00 | 74 | 1003.0 |
| 20260505031330 | 22 | 171 | 12.9 | 22.5 | 0.00 | 0.00 | 0.00 | 75 | 1003.0 |
| 20260505030330 | 22 | 158 | 12.9 | 24.1 | 0.00 | 0.00 | 0.00 | 75 | 1002.9 |
| 20260505025306 | 22 | 155 | 12.9 | 24.1 | 0.00 | 0.00 | 0.00 | 75 | 1002.9 |
| 20260505024301 | 22 | 161 | 11.3 | 19.3 | 0.00 | 0.00 | 0.00 | 75 | 1003.0 |
| 20260505023232 | 22 | 165 | 11.3 | 25.7 | 0.00 | 0.00 | 0.00 | 74 | 1003.2 |
| 20260505021101 | 22 | 171 | 12.9 | 22.5 | 0.00 | 0.00 | 0.00 | 74 | 1003.1 |
| 20260505015106 | 23 | 150 | 11.3 | 20.9 | 0.00 | 0.00 | 0.00 | 73 | 1002.8 |
| 20260505014125 | 23 | 147 | 9.7 | 17.7 | 0.00 | 0.00 | 0.00 | 72 | 1003.0 |
| 20260505013056 | 23 | 130 | 8.0 | 17.7 | 0.00 | 0.00 | 0.00 | 71 | 1003.0 |
| 20260505012119 | 23 | 150 | 8.0 | 24.1 | 0.00 | 0.00 | 0.00 | 69 | 1003.1 |
| 20260505011048 | 24 | 148 | 12.9 | 24.1 | 0.00 | 0.00 | 0.00 | 68 | 1002.9 |
| 20260505010027 | 24 | 146 | 9.7 | 19.3 | 0.00 | 0.00 | 0.00 | 68 | 1003.0 |
| 20260505005049 | 24 | 179 | 11.3 | 24.1 | 0.00 | 0.00 | 0.00 | 67 | 1002.9 |
| 20260505004030 | 25 | 190 | 11.3 | 24.1 | 0.00 | 0.00 | 0.00 | 67 | 1003.0 |
| 20260505001907 | 25 | 189 | 12.9 | 24.1 | 0.00 | 0.00 | 0.00 | 66 | 1003.1 |
| 20260505000915 | 25 | 150 | 14.5 | 29.0 | 0.00 | 0.00 | 0.00 | 65 | 1003.1 |
| 20260504235847 | 25 | 184 | 19.3 | 38.6 | 0.00 | 0.00 | 0.00 | 63 | 1003.2 |
| 20260504233739 | 26 | 126 | 17.7 | 35.4 | 0.00 | 0.00 | 0.00 | 64 | 1003.6 |
| 20260504232728 | 26 | 175 | 17.7 | 30.6 | 0.00 | 0.00 | 0.00 | 64 | 1003.6 |
| 20260504230657 | 26 | 177 | 17.7 | 40.2 | 0.00 | 0.00 | 0.00 | 63 | 1003.7 |
| 20260504225715 | 26 | 188 | 19.3 | 40.2 | 0.00 | 0.00 | 0.00 | 63 | 1003.7 |
| 20260504224642 | 26 | 163 | 19.3 | 30.6 | 0.00 | 0.00 | 0.00 | 63 | 1003.8 |
| 20260504222602 | 26 | 190 | 19.3 | 40.2 | 0.00 | 0.00 | 0.00 | 60 | 1003.9 |
| 20260504221626 | 26 | 140 | 17.7 | 33.8 | 0.00 | 0.00 | 0.00 | 61 | 1003.9 |
| 20260504220625 | 26 | 182 | 19.3 | 33.8 | 0.00 | 0.00 | 0.00 | 61 | 1003.8 |
| 20260504215558 | 26 | 147 | 19.3 | 33.8 | 0.00 | 0.00 | 0.00 | 61 | 1004.0 |
| 20260504214526 | 27 | 194 | 19.3 | 33.8 | 0.00 | 0.00 | 0.00 | 60 | 1004.2 |
| 20260504213517 | 27 | 163 | 19.3 | 33.8 | 0.00 | 0.00 | 0.00 | 59 | 1004.3 |
| 20260504211322 | 27 | 159 | 22.5 | 48.3 | 0.00 | 0.00 | 0.00 | 58 | 1004.7 |
| 20260504203952 | 27 | 190 | 24.1 | 40.2 | 0.00 | 0.00 | 0.00 | 57 | 1005.1 |
| 20260504202944 | 28 | 156 | 19.3 | 38.6 | 0.00 | 0.00 | 0.00 | 56 | 1005.5 |
| 20260504201935 | 27 | 169 | 19.3 | 40.2 | 0.00 | 0.00 | 0.00 | 59 | 1005.6 |
| 20260504200915 | 27 | 186 | 20.9 | 40.2 | 0.00 | 0.00 | 0.00 | 58 | 1005.9 |
| 20260504195935 | 27 | 177 | 20.9 | 40.2 | 0.00 | 0.00 | 0.00 | 58 | 1006.2 |
| 20260504194913 | 27 | 188 | 19.3 | 35.4 | 0.00 | 0.00 | 0.00 | 57 | 1006.4 |